[Iaude] MPEC T35: 2023 TR [a=1.91,e=0.48,i=6.6,H=26.0]

mpec at marsden.cfa.harvard.edu mpec at marsden.cfa.harvard.edu
Thu Oct 5 22:01:48 EDT 2023


M.P.E.C. 2023-T35                               Issued 2023 October 6, 02:00 UT

     The Minor Planet Electronic Circulars contain information on unusual
         minor planets, routine data on comets and natural satellites,
         and occasional editorial announcements.  They are published
    on behalf of Division F of the International Astronomical Union by the
          Minor Planet Center, Smithsonian Astrophysical Observatory,
                          Cambridge, MA 02138, U.S.A.
			  
             Prepared using the Tamkin Foundation Computer Network

                              MPC at CFA.HARVARD.EDU
            URL https://www.minorplanetcenter.net/    ISSN 1523-6714

                                    2023 TR                                     


Observations:
     K23T00R* C2023 10 04.23837321 08 44.068-01 24 32.37         20.28wXET035F51
     K23T00R  C2023 10 04.25053721 08 50.772-01 26 14.66         20.67wXET035F51
     K23T00R  C2023 10 04.26266121 08 57.508-01 27 57.59         20.05wXET035F51
     K23T00R  C2023 10 04.27481421 09 04.228-01 29 40.62         20.50wXET035F51
     K23T00R KB2023 10 04.79838921 15 38.59 -02 52 06.1          19.9 GVET035I93
     K23T00R KB2023 10 04.80986721 15 46.76 -02 54 01.3          19.9 GVET035I93
     K23T00R KB2023 10 04.82079821 15 54.53 -02 55 51.5          19.5 GVET035I93
     K23T00R 7C2023 10 04.84258321 16 10.898-02 58 58.09         19.5 GVET035Z84
     K23T00R 7C2023 10 04.84462621 16 12.333-02 59 19.19         20.0 GVET035Z84
     K23T00R 7C2023 10 04.84667321 16 13.761-02 59 39.63         19.2 GVET035Z84
     K23T00R KC2023 10 04.91914221 17 05.57 -03 12 32.4          18.9 GXET035958
     K23T00R KC2023 10 04.92632621 17 10.94 -03 13 45.9          19.0 GXET035958
     K23T00R KC2023 10 04.92679 21 17 08.27 -03 13 51.6          19.7 GVET035104
     K23T00R KC2023 10 04.93350821 17 16.28 -03 15 02.0          19.3 GXET035958
     K23T00R KC2023 10 04.94502 21 17 22.14 -03 17 00.1          19.3 GVET035104
     K23T00R KC2023 10 05.09171821 19 49.28 -03 42 32.7          19.5 GXET035858
     K23T00R KC2023 10 05.09815621 19 54.25 -03 43 43.4          19.4 GXET035858
     K23T00R KC2023 10 05.10525721 19 59.75 -03 45 01.9          19.4 GXET035858
     K23T00R KB2023 10 05.76210421 31 04.126-06 00 53.46         19.2 GXET035K74
     K23T00R KB2023 10 05.76928821 31 11.537-06 02 32.50         18.9 GXET035K74
     K23T00R KB2023 10 05.77647121 31 18.965-06 04 11.86         19.4 GXET035K74
     K23T00R KB2023 10 05.77710 21 31 21.86 -06 03 54.1          19.3 VZET035C95
     K23T00R KB2023 10 05.78723 21 31 32.22 -06 06 14.7          19.9 VZET035C95
     K23T00R KB2023 10 05.79693 21 31 42.16 -06 08 30.1          19.4 VZET035C95
     K23T00R 0B2023 10 05.81031621 31 52.220-06 04 05.46         19.2 VZET035M49
     K23T00R 0B2023 10 05.81320821 31 55.102-06 04 45.71         19.8 VZET035M49
     K23T00R 0B2023 10 05.81724621 31 59.086-06 05 42.19         19.2 VZET035M49
     K23T00R KC2023 10 06.03662521 36 34.15 -07 05 55.8          19.6 VuET035H21
     K23T00R KC2023 10 06.03943521 36 37.34 -07 06 38.8          19.7 VuET035H21
     K23T00R KC2023 10 06.04224121 36 40.49 -07 07 21.7          19.4 VuET035H21
     K23T00R KC2023 10 06.04766721 36 46.62 -07 08 44.3          19.5 VuET035H21

Observer details:
104 San Marcello Pistoiese.  Observers P. Bacci, M. Maestripieri.  Measurer P.
    Bacci.  0.60-m f/4.0 reflector + CCD.
858 Tebbutt Observatory, Edgewood.  Observer F. B. Zoltowski.  0.51-m f/8.1
    Schmidt-Cassegrain + CCD.
958 Observatoire de Dax.  Observers P. Dupouy, J. B. de Vanssay.  Measurer P.
    Dupouy.  0.43-m f/2.7 Reflector + CCD.
C95 SATINO Remote Observatory, Haute Provence.  Observers D. Husar, K. Meo.
    Measurer D. Husar.  0.30-m f/5.8 reflector + CMO.
F51 Pan-STARRS 1, Haleakala.  Observers J. Bulger, T. Lowe, P. Minguez, A.
    Schultz, I. Smith.  Measurers K. Chambers, T. de Boer, J. Bulger, J.
    Fairlamb, H. Gao, M. Huber, C.-C. Lin, T. Lowe, E. Magnier, P. Minguez, Y.
    Ramanjooloo, A. Schultz, I. Smith, R. Wainscoat, R. Weryk.  1.8-m Ritchey-
    Chretien + CCD.
H21 Astronomical Research Observatory, Westfield.  Observer R. Holmes.
    Measurers T. Linder, R. Holmes, L. Horn.  0.81-m f/4.0 astrograph + CCD.
I93 St Pardon de Conques.  Observer F. Losse.  0.40-m f/3.7 reflector + CMO.
K74 Muensterschwarzach Observatory, Schwarzach.  Observer C. Gerhard.  0.30-m
    f/3.75 reflector + CMO.
M49 IAS Remote Observatory, Hakos.  Observers D. Husar, M. Junius.  Measurer
    D. Husar.  0.25-m f/4.5 reflector + CMO.
Z84 Calar Alto-Schmidt.  Observers F. Ocana, M. Micheli, R. Kresken, L.
    Conversi.  Measurers F. Ocana, M. Micheli.  0.8-m f/3 Schmidt + CCD.

Orbital elements:
2023 TR                                                  Earth MOID = 0.0099 AU
Epoch 2023 Sept. 13.0 TT = JDT 2460200.5                Veres                   
M 346.26800              (2000.0)            P               Q                  
n   0.37231615     Peri.  195.27609     +0.88493744     -0.46504885             
a   1.9136454      Node   192.52618     +0.43837133     +0.84978699             
e   0.4775310      Incl.    6.56724     +0.15721419     +0.24817663             
P   2.65           H   26.07          G   0.15           U   8                  
Residuals in seconds of arc
231004 F51  0.2+  0.1-    231004 958  0.0   0.2+    231005 C95  0.4+  0.8-
231004 F51  0.2-  0.2+    231004 104  0.2+  0.6-    231005 C95  0.3+  1.1-
231004 F51  0.2+  0.1-    231004 958  0.2-  1.4-    231005 M49  0.1-  0.1-
231004 F51  0.1-  0.1+    231004 104  0.0   0.1-    231005 M49  0.2+  0.2-
231004 I93  0.7-  0.3+    231005 858  0.2-  0.1-    231005 M49  0.1-  0.6-
231004 I93  0.1-  0.3+    231005 858  0.2-  0.1+    231006 H21  0.0   0.5+
231004 I93  0.2+  0.1+    231005 858  0.1+  0.0     231006 H21  0.2+  0.2+
231004 Z84  0.0   0.2+    231005 K74  0.2-  0.3-    231006 H21  0.1-  0.0
231004 Z84  0.0   0.1-    231005 K74  0.1-  0.1-    231006 H21  0.2-  0.1+
231004 Z84  0.1-  0.2+    231005 K74  0.1+  0.1-
231004 958  0.8-  0.6-    231005 C95  0.7+  0.9-

Ephemeris:
2023 TR                  a,e,i = 1.91, 0.48, 7                   q = 0.9998
Date    TT    R. A. (2000) Decl.     Delta      r    Elong.  Phase     V
2023 09 06    20 25 01.9 +10 18 31   0.1468  1.1225   138.6    36.5    23.6
...
2023 09 21    20 23 19.2 +08 43 21   0.08185 1.0560   127.5    49.0    22.6
...
2023 09 29    20 36 28.2 +05 24 43   0.04812 1.0299   124.3    53.5    21.5
...
2023 10 05    21 18 21.0 -03 22 04   0.02367 1.0153   128.8    50.2    19.8
2023 10 06    21 35 37.7 -06 51 20   0.01992 1.0133   131.4    47.8    19.4
2023 10 07    22 01 08.3 -11 48 28   0.01644 1.0114   135.1    44.3    18.9
...
2023 10 13    05 28 13.1 -32 51 04   0.01695 1.0030   106.8    72.3    19.8
...
2023 10 21    07 10 50.9 -20 09 50   0.04836 0.9996    93.2    84.0    22.4
...
2023 11 05    07 34 01.7 -15 44 04   0.1086  1.0173   100.6    73.4    23.9

M. P. C. Staff               (C) Copyright 2023 MPC           M.P.E.C. 2023-T35





More information about the Iaude mailing list